Location: Pulvis Stellarum Observatory
(41.6962°N, 71.4263°W)
Time: 15:25:47
(UTC-04:00)

Cosmos 1758 - Visible Passes

Search period start: 26 April 2015 00:00
Search period end: 06 May 2015 00:00
Orbit: 547 x 569 km, 82.5° (Epoch: 25 April)

Date Brightness Start Highest point End Pass type
(mag) Time Alt. Az. Time Alt. Az. Time Alt. Az.
26 Apr 4.7 02:38:30 10° N 02:41:15 38° NNE 02:41:15 38° NNE visible
27 Apr 4.8 02:36:40 10° N 02:39:15 36° N 02:39:15 36° N visible
28 Apr 4.8 02:34:50 10° N 02:37:15 34° N 02:37:15 34° N visible
29 Apr 4.9 02:33:01 10° N 02:35:16 32° N 02:35:16 32° N visible
30 Apr 5.0 02:31:12 10° NNW 02:33:19 29° NNW 02:33:19 29° NNW visible
01 May 5.1 02:29:25 10° NNW 02:31:22 27° NNW 02:31:22 27° NNW visible
02 May 6.3 00:53:03 10° NE 00:53:33 11° NE 00:53:33 11° NE visible
02 May 5.2 02:27:37 10° NNW 02:29:25 24° NNW 02:29:25 24° NNW visible
03 May 6.2 00:50:43 10° NE 00:51:37 12° NE 00:51:37 12° NE visible
03 May 5.3 02:25:50 10° NNW 02:27:29 22° NNW 02:27:29 22° NNW visible
04 May 6.1 00:48:32 10° NNE 00:49:41 14° NE 00:49:41 14° NE visible
04 May 5.5 02:24:04 10° NNW 02:25:33 20° NW 02:25:33 20° NW visible
05 May 6.0 00:46:24 10° NNE 00:47:46 15° NE 00:47:46 15° NE visible
05 May 5.6 02:22:19 10° NNW 02:23:38 18° NW 02:23:38 18° NW visible
